Big Bear Station Historical Data
 
Daily Summary for August 23, 2017 Units:  English    Metric   Both
« Previous Day
Next Day »
Daily Weekly Monthly Yearly Custom
  Current: High: Low: Average:
Temperature: 48.9 °F 54.5 °F 48.6 °F 51 °F
Dew Point: 45.8 °F 47.0 °F 44.6 °F 45.5 °F
Humidity: 89 % 89 % 75 % 82 %
Wind Speed: 1.7 mph 2.2 mph 0.0 mph 0.3 mph
Wind Gust: -999.0 mph -999.0 mph - -
Wind:South - - South
Pressure: 30.27 in 30.30 in 30.26 in -
Precipitation: 0.00 in      
Historical Graphs
 
 
Tabular Data for August 23, 2017
Time Temperature Dew Point Pressure Wind Wind Speed Wind Gust Humidity Rainfall Rate (Hourly)
00:03 54.5 °F 46.7 °F 30.30 in Calm   -999.0 mph 75 % 0 in
00:19 54.3 °F 46.5 °F 30.30 in Calm   -999.0 mph 75 % 0 in
00:34 54.0 °F 47.0 °F 30.30 in Calm   -999.0 mph 77 % 0 in
00:49 53.6 °F 46.6 °F 30.30 in Calm   -999.0 mph 77 % 0 in
01:04 53.2 °F 46.2 °F 30.29 in Calm   -999.0 mph 77 % 0 in
01:19 52.9 °F 45.5 °F 30.29 in Calm   -999.0 mph 76 % 0 in
01:35 52.9 °F 45.2 °F 30.29 in Calm   -999.0 mph 75 % 0 in
01:50 52.3 °F 45.6 °F 30.29 in Calm   -999.0 mph 78 % 0 in
02:05 51.8 °F 45.5 °F 30.29 in Calm   -999.0 mph 79 % 0 in
02:20 51.6 °F 46.0 °F 30.29 in Calm   -999.0 mph 81 % 0 in
02:35 51.4 °F 45.8 °F 30.29 in Calm   -999.0 mph 81 % 0 in
02:51 51.3 °F 45.7 °F 30.29 in Calm   -999.0 mph 81 % 0 in
03:06 51.1 °F 45.8 °F 30.28 in Calm   -999.0 mph 82 % 0 in
03:21 50.7 °F 45.1 °F 30.28 in Calm   -999.0 mph 81 % 0 in
03:36 50.4 °F 44.8 °F 30.28 in Calm   -999.0 mph 81 % 0 in
03:51 50.4 °F 45.1 °F 30.28 in Calm   -999.0 mph 82 % 0 in
04:07 50.0 °F 44.7 °F 30.27 in South 1.7 mph -999.0 mph 82 % 0 in
04:22 49.6 °F 44.6 °F 30.27 in SSW 2.2 mph -999.0 mph 83 % 0 in
04:37 49.5 °F 45.2 °F 30.27 in Calm   -999.0 mph 85 % 0 in
04:52 49.3 °F 45.0 °F 30.26 in Calm   -999.0 mph 85 % 0 in
05:08 49.1 °F 45.4 °F 30.27 in Calm   -999.0 mph 87 % 0 in
05:23 48.9 °F 44.9 °F 30.26 in Calm   -999.0 mph 86 % 0 in
05:38 48.9 °F 44.6 °F 30.26 in Calm   -999.0 mph 85 % 0 in
05:53 48.6 °F 44.6 °F 30.27 in Calm   -999.0 mph 86 % 0 in
06:08 48.6 °F 45.5 °F 30.26 in SE 1.7 mph -999.0 mph 89 % 0 in
06:24 48.7 °F 45.6 °F 30.27 in SSE 1.7 mph -999.0 mph 89 % 0 in
06:39 48.9 °F 45.8 °F 30.27 in South 1.7 mph -999.0 mph 89 % 0 in
Big Bear CA Weather
Compliments of Weather Underground - 1.25 mb